Time,TemperatureF,DewpointF,PressureIn,WindDirection,WindDirectionDegrees,WindSpeedMPH,WindSpeedGustMPH,Humidity,HourlyPrecipIn,Conditions,Clouds,dailyrainin,SoftwareType,DateUTC
2013-12-18 00:09:00,32.7,32.2,30.04,SSE,157,0.0,-999.0,98,-99.99,,,0.00,Acu-Link.com,2013-12-18 06:09:00,
2013-12-18 00:24:00,33.4,33.1,30.04,SSE,157,0.0,-999.0,99,-99.99,,,0.00,Acu-Link.com,2013-12-18 06:24:00,
2013-12-18 00:39:00,32.7,32.5,30.03,SSE,157,0.0,-999.0,99,-99.99,,,0.00,Acu-Link.com,2013-12-18 06:39:00,
2013-12-18 00:54:00,32.2,32.0,30.03,SSE,157,0.0,-999.0,99,-99.99,,,0.00,Acu-Link.com,2013-12-18 06:54:00,
2013-12-18 01:09:00,32.2,32.0,30.02,NE,45,0.0,-999.0,99,-99.99,,,0.00,Acu-Link.com,2013-12-18 07:09:00,
2013-12-18 01:24:00,32.0,31.8,30.02,NE,45,0.0,-999.0,99,-99.99,,,0.00,Acu-Link.com,2013-12-18 07:24:00,
2013-12-18 01:39:00,31.6,31.4,30.03,NE,45,0.0,-999.0,99,-99.99,,,0.00,Acu-Link.com,2013-12-18 07:39:00,
2013-12-18 01:54:00,31.3,31.1,30.03,NE,45,0.0,-999.0,99,-99.99,,,0.00,Acu-Link.com,2013-12-18 07:54:00,
2013-12-18 02:09:00,30.9,30.7,30.04,NE,45,0.0,-999.0,99,-99.99,,,0.00,Acu-Link.com,2013-12-18 08:09:00,
2013-12-18 02:25:00,30.7,30.5,30.04,NE,45,0.0,-999.0,99,-99.99,,,0.00,Acu-Link.com,2013-12-18 08:25:00,
2013-12-18 02:40:00,30.6,30.4,30.04,NE,45,0.0,-999.0,99,-99.99,,,0.00,Acu-Link.com,2013-12-18 08:40:00,
2013-12-18 02:55:00,30.7,30.5,30.04,NE,45,0.0,-999.0,99,-99.99,,,0.00,Acu-Link.com,2013-12-18 08:55:00,
2013-12-18 03:10:00,30.6,30.4,30.05,NE,45,0.0,-999.0,99,-99.99,,,0.00,Acu-Link.com,2013-12-18 09:10:00,
2013-12-18 03:25:00,30.4,30.2,30.05,NE,45,0.0,-999.0,99,-99.99,,,0.00,Acu-Link.com,2013-12-18 09:25:00,
2013-12-18 03:40:00,30.0,29.8,30.05,NE,45,0.0,-999.0,99,-99.99,,,0.00,Acu-Link.com,2013-12-18 09:40:00,
2013-12-18 03:55:00,30.7,30.5,30.05,NE,45,0.0,-999.0,99,-99.99,,,0.00,Acu-Link.com,2013-12-18 09:55:00,
2013-12-18 04:10:00,30.7,30.5,30.05,NE,45,0.0,-999.0,99,-99.99,,,0.00,Acu-Link.com,2013-12-18 10:10:00,
2013-12-18 04:25:00,30.2,30.0,30.05,NE,45,0.0,-999.0,99,-99.99,,,0.00,Acu-Link.com,2013-12-18 10:25:00,
2013-12-18 04:40:00,29.8,29.6,30.05,NE,45,0.0,-999.0,99,-99.99,,,0.00,Acu-Link.com,2013-12-18 10:40:00,
2013-12-18 04:56:00,29.5,29.3,30.05,NE,45,0.0,-999.0,99,-99.99,,,0.00,Acu-Link.com,2013-12-18 10:56:00,
2013-12-18 05:11:00,29.5,29.3,30.06,NE,45,0.0,-999.0,99,-99.99,,,0.00,Acu-Link.com,2013-12-18 11:11:00,
2013-12-18 05:26:00,29.5,29.3,30.06,NE,45,0.0,-999.0,99,-99.99,,,0.00,Acu-Link.com,2013-12-18 11:26:00,
2013-12-18 05:41:00,29.7,29.5,30.06,NE,45,0.0,-999.0,99,-99.99,,,0.00,Acu-Link.com,2013-12-18 11:41:00,
2013-12-18 05:56:00,29.5,29.3,30.06,NE,45,0.0,-999.0,99,-99.99,,,0.00,Acu-Link.com,2013-12-18 11:56:00,
2013-12-18 06:11:00,29.1,28.9,30.07,NE,45,0.0,-999.0,99,-99.99,,,0.00,Acu-Link.com,2013-12-18 12:11:00,
2013-12-18 06:26:00,29.3,29.1,30.07,NE,45,0.0,-999.0,99,-99.99,,,0.00,Acu-Link.com,2013-12-18 12:26:00,
2013-12-18 06:41:00,29.1,28.9,30.08,NE,45,0.0,-999.0,99,-99.99,,,0.00,Acu-Link.com,2013-12-18 12:41:00,
2013-12-18 06:56:00,28.9,28.7,30.08,NE,45,0.0,-999.0,99,-99.99,,,0.00,Acu-Link.com,2013-12-18 12:56:00,
2013-12-18 07:12:00,29.3,29.1,30.08,NE,45,0.0,-999.0,99,-99.99,,,0.00,Acu-Link.com,2013-12-18 13:12:00,
2013-12-18 07:27:00,29.7,29.5,30.08,NE,45,0.0,-999.0,99,-99.99,,,0.00,Acu-Link.com,2013-12-18 13:27:00,
2013-12-18 07:42:00,30.6,30.4,30.08,NE,45,0.0,-999.0,99,-99.99,,,0.00,Acu-Link.com,2013-12-18 13:42:00,
2013-12-18 07:57:00,32.5,32.3,30.08,East,90,0.0,-999.0,99,-99.99,,,0.00,Acu-Link.com,2013-12-18 13:57:00,
2013-12-18 08:12:00,34.9,34.6,30.09,South,180,0.0,-999.0,99,-99.99,,,0.00,Acu-Link.com,2013-12-18 14:12:00,
2013-12-18 08:27:00,37.6,37.3,30.10,SSW,202,0.0,-999.0,99,-99.99,,,0.00,Acu-Link.com,2013-12-18 14:27:00,
2013-12-18 08:42:00,42.1,39.9,30.10,SSE,157,2.7,-999.0,92,-99.99,,,0.00,Acu-Link.com,2013-12-18 14:42:00,
2013-12-18 08:57:00,45.1,40.9,30.11,SSE,157,1.7,-999.0,85,-99.99,,,0.00,Acu-Link.com,2013-12-18 14:57:00,
2013-12-18 09:12:00,47.7,40.5,30.11,South,180,4.2,-999.0,76,-99.99,,,0.00,Acu-Link.com,2013-12-18 15:12:00,
2013-12-18 09:28:00,50.4,39.9,30.11,South,180,2.2,-999.0,67,-99.99,,,0.00,Acu-Link.com,2013-12-18 15:28:00,
2013-12-18 09:43:00,52.7,40.1,30.11,SSE,157,1.7,-999.0,62,-99.99,,,0.00,Acu-Link.com,2013-12-18 15:43:00,
2013-12-18 09:58:00,54.5,37.2,30.11,SSE,157,2.7,-999.0,52,-99.99,,,0.00,Acu-Link.com,2013-12-18 15:58:00,
2013-12-18 10:13:00,56.3,37.9,30.11,South,180,2.7,-999.0,50,-99.99,,,0.00,Acu-Link.com,2013-12-18 16:13:00,
2013-12-18 10:28:00,57.7,38.1,30.11,ESE,112,0.0,-999.0,48,-99.99,,,0.00,Acu-Link.com,2013-12-18 16:28:00,
2013-12-18 10:43:00,59.0,38.3,30.10,SSE,157,2.2,-999.0,46,-99.99,,,0.00,Acu-Link.com,2013-12-18 16:43:00,
2013-12-18 10:58:00,59.7,39.4,30.09,ESE,112,2.2,-999.0,47,-99.99,,,0.00,Acu-Link.com,2013-12-18 16:58:00,
2013-12-18 11:13:00,61.7,39.6,30.09,South,180,4.7,-999.0,44,-99.99,,,0.00,Acu-Link.com,2013-12-18 17:13:00,
2013-12-18 11:28:00,62.1,41.1,30.08,East,90,1.7,-999.0,46,-99.99,,,0.00,Acu-Link.com,2013-12-18 17:28:00,
2013-12-18 11:44:00,63.3,42.2,30.07,SSE,157,1.7,-999.0,46,-99.99,,,0.00,Acu-Link.com,2013-12-18 17:44:00,
2013-12-18 11:59:00,62.8,41.1,30.06,East,90,0.0,-999.0,45,-99.99,,,0.00,Acu-Link.com,2013-12-18 17:59:00,
2013-12-18 12:14:00,64.4,40.8,30.06,SSW,202,4.7,-999.0,42,-99.99,,,0.00,Acu-Link.com,2013-12-18 18:14:00,
2013-12-18 12:29:00,66.6,41.5,30.05,ENE,67,3.2,-999.0,40,-99.99,,,0.00,Acu-Link.com,2013-12-18 18:29:00,
2013-12-18 12:45:00,66.0,41.0,30.04,SSE,157,3.7,-999.0,40,-99.99,,,0.00,Acu-Link.com,2013-12-18 18:45:00,
2013-12-18 13:00:00,66.9,41.8,30.03,SE,135,3.2,-999.0,40,-99.99,,,0.00,Acu-Link.com,2013-12-18 19:00:00,
2013-12-18 13:15:00,67.6,42.4,30.02,South,180,2.7,-999.0,40,-99.99,,,0.00,Acu-Link.com,2013-12-18 19:15:00,
2013-12-18 13:30:00,68.9,41.5,30.01,SW,225,2.2,-999.0,37,-99.99,,,0.00,Acu-Link.com,2013-12-18 19:30:00,
2013-12-18 13:45:00,68.4,40.4,30.00,SE,135,2.2,-999.0,36,-99.99,,,0.00,Acu-Link.com,2013-12-18 19:45:00,
2013-12-18 14:00:00,68.5,41.2,30.00,ESE,112,4.2,-999.0,37,-99.99,,,0.00,Acu-Link.com,2013-12-18 20:00:00,
2013-12-18 14:16:00,69.1,41.0,29.99,SSW,202,5.3,-999.0,36,-99.99,,,0.00,Acu-Link.com,2013-12-18 20:16:00,
2013-12-18 14:31:00,68.9,41.5,29.98,SSE,157,3.7,-999.0,37,-99.99,,,0.00,Acu-Link.com,2013-12-18 20:31:00,
2013-12-18 14:46:00,68.9,40.8,29.98,SSW,202,6.8,-999.0,36,-99.99,,,0.00,Acu-Link.com,2013-12-18 20:46:00,
2013-12-18 15:01:00,69.3,41.9,29.98,South,180,3.2,-999.0,37,-99.99,,,0.00,Acu-Link.com,2013-12-18 21:01:00,
2013-12-18 15:16:00,68.5,41.9,29.97,SE,135,2.7,-999.0,38,-99.99,,,0.00,Acu-Link.com,2013-12-18 21:16:00,
2013-12-18 15:31:00,68.7,41.4,29.97,South,180,5.8,-999.0,37,-99.99,,,0.00,Acu-Link.com,2013-12-18 21:31:00,
2013-12-18 15:46:00,66.9,40.5,29.97,SSW,202,4.2,-999.0,38,-99.99,,,0.00,Acu-Link.com,2013-12-18 21:46:00,
2013-12-18 16:01:00,66.4,40.7,29.96,SW,225,2.7,-999.0,39,-99.99,,,0.00,Acu-Link.com,2013-12-18 22:01:00,
2013-12-18 16:32:00,64.9,40.6,29.95,SSW,202,1.7,-999.0,41,-99.99,,,0.00,Acu-Link.com,2013-12-18 22:32:00,
2013-12-18 16:47:00,60.6,40.3,29.95,SSE,157,0.0,-999.0,47,-99.99,,,0.00,Acu-Link.com,2013-12-18 22:47:00,
2013-12-18 17:02:00,58.1,40.1,29.95,ENE,67,0.0,-999.0,51,-99.99,,,0.00,Acu-Link.com,2013-12-18 23:02:00,
2013-12-18 17:17:00,54.5,40.0,29.96,ENE,67,0.0,-999.0,58,-99.99,,,0.00,Acu-Link.com,2013-12-18 23:17:00,
2013-12-18 17:32:00,52.0,39.8,29.96,ENE,67,0.0,-999.0,63,-99.99,,,0.00,Acu-Link.com,2013-12-18 23:32:00,
2013-12-18 17:47:00,48.9,39.9,29.96,SSW,202,0.0,-999.0,71,-99.99,,,0.00,Acu-Link.com,2013-12-18 23:47:00,
2013-12-18 18:02:00,47.1,38.9,29.96,NNE,22,0.0,-999.0,73,-99.99,,,0.00,Acu-Link.com,2013-12-19 00:02:00,
2013-12-18 18:17:00,45.5,38.7,29.96,SE,135,0.0,-999.0,77,-99.99,,,0.00,Acu-Link.com,2013-12-19 00:17:00,
2013-12-18 18:32:00,43.9,38.1,29.96,ESE,112,0.0,-999.0,80,-99.99,,,0.00,Acu-Link.com,2013-12-19 00:32:00,
2013-12-18 18:48:00,42.8,38.0,29.97,ESE,112,0.0,-999.0,83,-99.99,,,0.00,Acu-Link.com,2013-12-19 00:48:00,
2013-12-18 19:03:00,41.9,38.0,29.97,NE,45,0.0,-999.0,86,-99.99,,,0.00,Acu-Link.com,2013-12-19 01:03:00,
2013-12-18 19:18:00,41.4,37.8,29.97,NNE,22,0.0,-999.0,87,-99.99,,,0.00,Acu-Link.com,2013-12-19 01:18:00,
2013-12-18 19:33:00,40.6,37.0,29.97,South,180,0.0,-999.0,87,-99.99,,,0.00,Acu-Link.com,2013-12-19 01:33:00,
2013-12-18 19:48:00,40.1,36.8,29.97,NW,315,0.0,-999.0,88,-99.99,,,0.00,Acu-Link.com,2013-12-19 01:48:00,
2013-12-18 20:03:00,39.7,37.0,29.97,NW,315,0.0,-999.0,90,-99.99,,,0.00,Acu-Link.com,2013-12-19 02:03:00,
2013-12-18 20:18:00,39.6,36.6,29.97,NW,315,0.0,-999.0,89,-99.99,,,0.00,Acu-Link.com,2013-12-19 02:18:00,
2013-12-18 20:33:00,39.2,36.8,29.96,NW,315,0.0,-999.0,91,-99.99,,,0.00,Acu-Link.com,2013-12-19 02:33:00,
2013-12-18 20:48:00,38.8,36.7,29.96,East,90,0.0,-999.0,92,-99.99,,,0.00,Acu-Link.com,2013-12-19 02:48:00,
2013-12-18 21:04:00,38.5,36.1,29.96,ESE,112,0.0,-999.0,91,-99.99,,,0.00,Acu-Link.com,2013-12-19 03:04:00,
2013-12-18 21:19:00,38.3,36.2,29.96,SSE,157,0.0,-999.0,92,-99.99,,,0.00,Acu-Link.com,2013-12-19 03:19:00,
2013-12-18 21:34:00,38.1,36.3,29.96,SSW,202,0.0,-999.0,93,-99.99,,,0.00,Acu-Link.com,2013-12-19 03:34:00,
2013-12-18 21:49:00,37.8,36.2,29.96,South,180,0.0,-999.0,94,-99.99,,,0.00,Acu-Link.com,2013-12-19 03:49:00,
2013-12-18 22:04:00,37.4,35.8,29.96,SW,225,0.0,-999.0,94,-99.99,,,0.00,Acu-Link.com,2013-12-19 04:04:00,
2013-12-18 22:19:00,36.7,35.1,29.96,SE,135,0.0,-999.0,94,-99.99,,,0.00,Acu-Link.com,2013-12-19 04:19:00,
2013-12-18 22:34:00,37.8,36.5,29.96,South,180,1.7,-999.0,95,-99.99,,,0.00,Acu-Link.com,2013-12-19 04:34:00,
2013-12-18 22:50:00,38.5,36.7,29.97,SSE,157,1.1,-999.0,93,-99.99,,,0.00,Acu-Link.com,2013-12-19 04:50:00,
2013-12-18 23:05:00,38.1,36.3,29.96,ESE,112,0.0,-999.0,93,-99.99,,,0.00,Acu-Link.com,2013-12-19 05:05:00,
2013-12-18 23:20:00,37.6,36.0,29.95,SE,135,0.0,-999.0,94,-99.99,,,0.00,Acu-Link.com,2013-12-19 05:20:00,
2013-12-18 23:35:00,37.0,35.4,29.95,SSW,202,0.0,-999.0,94,-99.99,,,0.00,Acu-Link.com,2013-12-19 05:35:00,
2013-12-18 23:50:00,36.3,35.0,29.94,East,90,0.0,-999.0,95,-99.99,,,0.00,Acu-Link.com,2013-12-19 05:50:00,